RH
6 6 5 5 5 6 9 10 8 14 13 18 44 69 42 11 18 16 6 6 6 6 5 4 4 3 3 2 5 13 14 22 46 50 54 32 16 9 11 18 17 34 15 18 25
4 5 5 4 4 4 4 6 6 6 6 8 10 7 7 7 6 6 6 6 6 5 4 4 4 3 3 3 2 2 3 5 14 27 38 48 48 30 11 10 10 34 24 18 23
3 4 4 5 4 4 4 5 5 6 7 8 7 6 5 4 5 6 5 6 6 5 4 4 4 4 3 3 2 2 2 2 2 3 3 13 33 52 44 26 12 10 28 17 15
4 3 4 6 7 8 9 9 6 6 5 4 4 4 3 3 5 5 5 5 5 5 5 6 5 4 4 3 3 2 2 2 2 2 2 2 2 11 27 43 41 22 13 16 17
6 6 5 5 7 10 16 19 18 18 17 14 12 10 10 8 8 7 6 6 6 6 5 5 4 4 4 3 3 2 2 2 2 3 3 4 4 3 3 7 25 46 32 16 12
7 10 12 12 13 13 14 13 12 12 9 7 7 6 6 7 8 8 7 8 7 7 7 7 6 6 5 5 4 4 2 2 2 3 3 3 3 4 3 4 3 5 30 45 40
3 4 5 4 5 5 5 5 5 5 5 6 7 8 9 10 10 9 8 8 7 6 6 5 5 5 5 5 5 5 5 5 5 4 4 8 4 3 3 4 4 4 4 12 38
4 4 5 5 5 6 6 6 7 7 7 8 9 10 9 8 8 8 6 5 5 4 4 4 4 4 3 3 3 3 3 3 4 9 10 17 5 5 7 6 5 5 5 4 6
4 4 4 5 5 5 5 6 6 6 6 6 6 7 7 7 5 5 5 5 4 4 4 3 3 3 2 2 2 2 2 2 2 5 6 16 7 4 8 10 9 8 7 6 4
3 4 5 6 6 6 6 6 6 6 6 6 6 6 5 5 5 5 5 4 4 4 3 3 3 2 2 2 1 1 1 2 2 5 12 12 14 6 7 12 14 10 9 8 7
3 4 6 6 6 7 6 6 6 7 6 5 6 6 6 6 5 5 5 4 4 4 4 3 3 2 1 1 2 3 4 4 5 6 12 16 29 18 16 14 18 16 11 7 6
4 5 6 6 7 7 7 7 7 6 6 6 6 6 6 5 5 5 5 5 4 4 4 3 3 2 2 3 4 6 6 5 6 6 10 14 27 17 19 21 20 19 17 12 6
4 5 7 7 7 7 7 6 7 7 7 7 7 7 6 6 6 6 6 5 5 4 4 3 2 2 2 6 6 5 5 5 5 5 6 17 8 8 14 16 19 16 16 16 14
4 5 6 6 6 7 7 7 8 7 7 8 8 8 8 7 7 6 6 6 6 5 4 3 2 3 5 6 5 5 6 7 8 41 10 44 16 6 5 10 33 26 31 18 19
5 6 6 7 7 8 8 8 8 8 8 9 9 9 8 9 8 8 7 7 6 6 5 3 3 4 6 6 6 22 42 37 32 25 57 57 74 6 24 92 92 63 30 20 13
6 7 8 9 9 9 10 10 10 10 10 10 10 10 10 10 10 9 8 8 7 6 5 4 4 5 6 6 14 47 75 44 75 98 56 100 95 55 63 32 29 95 85 51 26
8 8 9 10 10 13 13 13 12 12 11 12 12 11 11 12 11 10 10 9 8 7 6 5 5 5 7 10 20 79 83 43 73 100 99 100 94 97 92 84 98 85 78 97 100
9 10 11 12 12 14 15 16 16 15 14 13 14 13 13 14 13 12 12 10 9 9 7 5 6 7 10 16 15 85 98 74 61 53 70 100 98 100 100 100 100 100 100 90 66
10 10 11 12 12 14 15 16 17 17 16 15 15 15 15 14 15 14 13 12 10 10 9 6 6 10 12 16 30 40 56 61 60 53 49 59 98 100 100 100 100 100 100 100 89
9 9 9 10 11 12 14 16 19 20 18 17 17 17 17 18 18 18 16 14 12 11 10 7 6 7 10 19 28 35 39 46 91 53 45 54 100 100 100 100 99 100 96 98 99
7 7 7 7 8 10 13 17 22 23 21 20 20 20 20 20 20 20 19 16 14 14 14 9 6 6 8 11 15 38 35 36 35 75 72 42 60 84 98 98 70 71 64 61 61
6 5 5 6 8 8 12 18 24 26 25 24 23 23 24 23 23 22 21 19 16 16 16 11 7 6 7 10 9 18 33 36 37 36 50 56 24 58 77 95 66 48 48 51 50
5 6 6 7 8 9 12 20 28 30 29 27 27 27 27 26 26 24 23 22 19 18 19 14 8 7 7 12 11 10 25 28 33 38 30 28 21 36 63 82 67 55 58 50 40
6 6 7 8 8 8 12 24 32 33 32 30 30 31 30 30 29 27 25 24 24 24 23 18 11 8 7 8 13 16 32 99 86 44 40 35 25 31 43 30 31 40 41 43 39
7 8 9 9 10 10 13 24 37 39 37 36 35 34 33 33 32 29 28 28 28 28 27 21 14 8 8 13 18 32 20 31 65 74 36 22 42 42 38 23 60 42 62 42 41
9 10 10 10 11 10 12 20 36 42 42 41 40 39 38 36 35 32 30 30 30 32 30 25 17 11 10 17 18 38 66 77 84 42 27 15 11 12 18 42 69 51 62 100 91
14 12 12 12 12 11 12 16 31 44 48 49 46 44 42 41 39 36 33 33 30 33 33 29 22 15 12 13 30 55 58 93 99 100 100 100 59 26 40 100 98 76 70 100 100
Wind_Speed
10 7 6 6 7 5 5 7 4 7 6 5 5 10 8 10 11 12 13 13 14 16 16 17 18 20 23 27 29 32 32 32 31 29 25 27 33 39 46 45 36 27 38 41 35
10 7 6 6 5 4 5 6 7 8 7 10 11 11 10 10 12 13 15 15 17 18 19 20 20 21 21 23 26 29 30 32 34 37 37 35 37 39 44 47 39 36 37 38 36
7 6 5 4 3 5 6 8 9 10 10 12 14 13 13 12 13 15 18 19 20 22 23 24 25 25 26 25 26 28 29 32 33 34 35 39 42 44 46 47 40 42 44 46 47
6 9 8 7 7 6 7 10 11 12 15 15 16 17 18 16 17 19 21 23 24 24 25 26 27 27 28 30 31 32 33 33 33 33 36 36 38 44 47 43 44 42 45 47 49
9 8 10 11 11 12 12 14 15 16 17 17 17 18 19 18 18 20 20 19 20 22 24 25 27 29 32 34 35 37 39 40 40 39 38 37 36 40 35 39 43 44 48 49 52
12 13 15 16 16 18 19 20 20 20 19 18 16 13 12 14 17 19 19 22 23 26 26 29 31 34 36 39 42 43 45 46 46 48 49 49 48 45 36 37 41 42 44 49 52
10 10 12 11 11 10 11 11 11 11 11 12 14 16 17 19 21 21 22 22 23 24 26 29 31 33 37 40 43 47 49 52 53 56 58 59 60 51 47 47 48 46 45 46 52
11 13 14 13 12 12 12 12 12 13 14 16 17 18 19 19 18 17 18 20 23 27 31 35 38 41 46 50 53 58 59 60 57 60 61 64 68 61 56 57 55 53 50 51 47
10 13 15 14 14 12 12 10 10 11 12 13 13 13 13 12 13 17 21 22 26 30 33 36 40 45 50 57 62 68 69 71 71 69 70 69 74 71 67 64 63 62 60 58 56
9 13 14 16 14 13 11 10 9 9 9 10 10 9 10 13 15 16 21 24 28 31 36 39 43 47 54 59 64 68 69 69 73 63 62 70 72 74 73 70 69 70 68 66 62
12 14 15 17 14 9 6 6 7 9 9 7 9 6 10 13 16 19 22 26 29 34 37 42 46 52 55 57 57 53 50 50 46 47 52 55 59 66 70 72 71 74 74 73 71
15 15 14 13 9 6 6 6 7 8 8 9 9 11 14 16 20 21 24 28 32 36 40 45 50 52 53 47 44 41 40 40 40 37 45 53 57 59 63 64 68 70 74 76 73
15 11 10 8 7 6 6 6 7 9 9 10 12 14 17 19 21 23 27 31 36 40 44 48 51 51 45 38 38 40 39 38 40 37 37 40 44 52 61 67 66 65 65 68 72
14 9 8 7 6 7 8 9 10 11 11 14 14 17 19 23 24 25 28 32 37 42 45 48 46 42 34 35 38 41 41 39 38 34 35 31 39 30 31 45 59 65 67 69 70
12 10 8 8 10 10 11 13 14 14 16 14 19 20 22 24 27 30 33 36 40 44 49 47 46 37 33 36 35 30 30 29 27 23 22 9 25 21 27 33 32 37 52 67 78
13 12 11 10 12 14 14 13 15 15 18 19 20 22 25 26 28 30 33 36 40 44 45 44 41 37 36 35 29 29 26 23 13 14 7 10 12 10 20 32 33 33 38 53 65
14 13 13 14 14 14 15 15 14 17 19 20 22 24 26 29 31 32 35 37 41 44 44 33 35 36 34 31 27 21 24 15 14 12 15 12 14 16 22 23 24 32 37 38 44
16 16 14 15 16 16 15 16 17 19 20 21 22 25 26 28 30 33 35 39 42 44 46 37 26 37 32 31 25 19 25 21 26 22 17 12 15 14 15 27 28 33 37 39 45
21 19 18 17 18 18 18 18 18 19 21 21 22 24 28 31 32 34 38 40 44 46 43 37 25 27 33 26 21 19 25 31 27 25 28 16 15 25 16 10 7 4 19 26 45
23 22 20 20 20 21 21 21 20 20 21 22 23 25 27 28 31 34 37 40 43 46 47 41 32 29 26 24 23 23 23 19 20 23 26 26 24 23 22 20 13 11 11 11 31
25 23 21 20 21 21 21 22 21 21 22 23 23 22 24 26 29 31 35 39 41 43 43 41 35 30 29 23 24 24 26 23 21 23 28 33 33 29 30 29 18 15 18 12 18
25 25 23 22 21 22 22 24 22 22 23 24 23 23 24 26 28 30 33 37 40 41 41 39 38 33 30 27 23 26 30 28 28 30 32 35 34 33 29 34 36 26 23 20 20
26 26 24 24 23 23 23 24 24 23 24 25 24 25 25 25 26 29 31 35 38 40 41 37 38 38 33 27 21 23 28 33 34 35 33 40 30 32 34 37 41 36 31 28 24
28 27 26 26 24 24 25 25 25 25 24 25 26 25 26 27 28 28 30 34 37 39 42 40 37 38 37 33 24 15 25 33 38 39 38 37 29 22 24 32 36 35 33 34 26
30 27 27 28 26 25 25 26 25 26 26 27 28 28 27 27 28 29 29 32 35 36 37 37 36 35 37 29 25 22 14 21 37 44 43 33 33 26 30 30 18 20 23 27 25
30 29 29 29 29 28 28 27 27 25 26 29 28 29 30 29 30 30 30 32 32 33 36 35 34 33 35 28 23 20 12 10 11 10 12 16 18 20 17 10 16 21 22 18 22
30 30 30 31 30 30 30 30 29 28 26 28 29 29 29 31 31 32 33 33 33 34 35 35 34 33 29 27 17 10 2 9 15 10 15 12 7 6 14 20 18 20 23 16 17
Wind_Direction
32 8 335 336 342 338 295 281 266 230 237 262 252 225 227 236 233 239 246 246 251 249 246 240 240 240 241 248 250 250 252 253 251 247 232 222 240 243 246 251 246 234 239 246 243
32 30 349 336 331 317 298 273 257 260 255 249 247 243 239 241 249 254 254 257 259 259 259 258 257 256 251 247 247 247 248 252 252 250 243 231 228 237 245 250 246 240 237 245 250
9 360 344 336 337 319 296 269 255 261 258 255 260 265 269 262 262 264 266 268 269 268 266 265 262 259 259 261 260 254 249 250 247 248 250 247 239 236 241 249 249 249 248 242 242
339 325 319 318 323 316 301 292 282 272 263 266 266 268 269 264 264 265 267 270 273 273 272 270 268 268 267 266 267 266 262 253 250 249 248 247 247 244 244 249 249 245 251 251 247
306 300 300 297 298 297 292 287 283 282 281 278 277 276 275 273 274 272 274 274 271 270 269 270 268 268 269 268 268 268 266 264 260 256 256 258 256 253 251 254 249 246 249 251 253
296 294 293 292 291 290 287 285 284 286 287 288 287 283 283 286 286 288 290 289 289 287 286 283 280 278 276 274 272 269 268 267 266 265 263 259 256 256 253 253 252 244 245 249 254
351 334 314 317 317 313 312 310 310 305 297 290 287 288 289 289 294 299 299 299 299 296 295 291 288 284 284 281 277 274 270 267 265 265 264 265 258 254 254 251 252 251 238 242 248
330 325 316 313 308 303 301 300 301 298 296 294 295 298 301 305 309 313 314 312 308 305 304 301 299 297 294 291 287 282 277 271 264 261 259 260 257 255 251 251 250 250 248 239 239
339 321 315 315 313 314 314 318 314 308 304 305 305 306 307 309 311 312 311 314 313 311 307 304 302 299 297 293 289 282 278 271 267 258 253 250 252 247 245 245 244 243 244 244 240
323 312 309 306 305 306 308 313 315 312 311 309 305 304 308 313 315 318 315 314 314 312 308 306 305 305 303 300 290 281 275 273 270 265 261 255 254 251 249 245 244 243 243 240 236
318 306 300 296 291 293 303 315 307 306 302 306 302 299 311 321 326 328 317 313 315 316 316 316 316 315 311 301 292 289 286 283 274 266 263 255 253 248 249 248 246 243 243 240 243
318 308 301 292 281 283 291 304 308 304 301 301 312 323 324 326 324 329 326 324 321 323 324 324 325 322 311 301 296 291 286 283 278 270 260 252 245 247 245 246 246 245 246 246 244
314 307 304 289 283 285 299 307 306 298 298 305 316 323 323 325 326 329 330 329 329 330 332 331 331 323 309 300 295 291 288 283 278 270 263 264 258 245 243 247 244 243 241 245 244
306 300 298 288 290 297 296 299 299 296 304 313 315 324 324 321 326 330 331 334 335 334 336 335 331 320 309 300 294 293 288 281 281 283 275 271 268 262 253 245 243 240 237 240 240
290 278 272 278 285 288 287 292 296 301 311 315 319 323 324 327 328 331 334 340 339 341 340 339 333 323 309 304 300 295 285 290 284 282 288 300 272 249 240 234 239 234 234 238 241
274 274 278 274 280 286 287 289 300 303 314 316 319 321 322 325 330 333 335 341 341 347 342 341 331 321 315 309 298 282 287 298 283 315 288 321 292 224 233 236 238 234 227 230 236
263 272 274 278 277 283 292 297 303 306 306 315 318 318 324 327 329 332 337 342 345 347 346 348 324 323 320 308 293 281 288 291 266 291 281 276 274 262 260 241 241 243 238 232 228
254 260 265 275 284 285 292 298 302 303 302 307 315 319 323 325 325 331 336 343 346 348 348 351 335 321 322 315 319 271 272 278 288 275 263 250 289 260 253 215 236 253 246 242 236
253 259 265 272 279 283 289 293 296 298 299 305 313 318 320 324 328 333 337 343 345 348 349 349 347 328 320 320 302 270 268 270 277 270 270 259 254 259 283 270 201 293 251 251 236
251 258 264 273 277 283 286 288 288 290 293 298 307 314 321 326 330 333 335 338 343 347 349 351 351 334 323 301 292 283 273 262 272 268 261 257 248 270 281 279 248 256 291 275 239
253 258 264 267 275 280 284 284 285 285 288 291 298 306 315 321 326 330 332 336 342 347 347 349 348 348 333 302 280 269 269 268 258 254 261 251 244 262 270 282 279 287 270 267 261
254 259 263 267 271 277 281 284 282 282 285 288 293 302 310 318 324 327 331 334 338 345 348 349 347 351 341 324 298 268 262 264 262 257 252 255 248 255 269 287 278 283 289 304 305
255 258 262 265 270 277 279 280 279 279 281 287 293 301 307 313 319 324 328 331 335 341 346 350 348 347 344 336 322 285 264 261 258 256 252 254 266 267 272 282 279 280 282 290 300
255 260 264 267 272 278 281 281 282 283 283 287 293 297 303 310 318 322 325 330 334 340 343 346 348 345 343 343 335 301 266 259 266 263 263 262 270 268 279 277 274 274 278 278 284
257 260 265 271 274 277 279 281 284 285 287 290 294 299 303 309 314 320 324 328 332 338 340 341 346 348 340 343 336 332 292 260 257 264 269 272 273 279 275 275 288 254 259 265 277
259 264 267 271 276 279 281 280 282 286 288 289 293 299 303 308 313 318 322 325 329 335 337 339 342 348 339 344 339 339 358 29 24 346 318 308 296 264 260 275 281 260 269 267 274
260 263 267 269 274 279 280 281 284 287 290 292 295 297 303 307 313 317 319 323 328 332 336 336 340 346 339 341 353 345 74 30 3 344 343 347 348 259 246 298 286 280 265 279 291